Tracking 30101 objects as of 14-Dec-2024
HD Live streaming from Space Station
objects crossing your sky now

INTELSAT 801

Track INTELSAT 801 now!
INTELSAT 801 is classified as:


NORAD ID: 24742
Int'l Code: 1997-009A
Perigee: 36,198.2 km
Apogee: 36,260.4 km
Inclination: 11.3 °
Period: 1,458.4 minutes
Semi major axis: 42600 km
RCS: 1.061 m2 (large)
Launch date: March 1, 1997
Source: International Telecommunications Satellite Organization (ITSO)
Launch site: FRENCH GUIANA (FRGUI)

64 C-band, 16 Ku-band; broadcasting, business services, direct-to-home TV broadcasting, telecommunications, VSAT networks; Atlantic Ocean region.
Your satellite tracking list
Your tracking list is empty




NASA's NSSDC Master Catalog

Two Line Element Set (TLE):
1 24742U 97009A   24348.52040998 -.00000249  00000-0  00000-0 0  9998
2 24742  11.3066  37.2795 0007310 342.1832  53.1280  0.98737938101224
Source of the keplerian elements: AFSPC